Consulta los datos en tiempo real de la estación meteorológica de St. Llorenç del Munt i l'Obac
| Hora UTC | 04:25 |
|---|---|
| Temperatura | 23.4 ºC |
| Humedad | 65.2 % |
| Presión | 1025.0 hPa |
| Pluja | 0.0 mm |
| Velocidad viento | 2.7 km/h |
| Dirección viento | NW |
| Radiación solar | 0.1 W/m² |
| Temperatura (ºC) | Humedad (%) | Presión (hPa) | Velocidad viento (km/h) | Precipitación (mm) | Radiación solar (W/m²) | |||||||||||||
|---|---|---|---|---|---|---|---|---|---|---|---|---|---|---|---|---|---|---|
| Hora UTC | Aire | Humedad | Presión | Vel. | Dir. | Vel. Max | Dir. | Intent. máx 5 min. | Rad. Sol. | |||||||||
| 00:05 | 23.7 | 48.5 | 1026.5 | 9.9 | SE | 9.9 | SSE | 0.0 | 0.1 | |||||||||
| 00:10 | 23.8 | 48.2 | 1026.5 | 9.7 | SE | 15.9 | ESE | 0.0 | 0.1 | |||||||||
| 00:15 | 23.8 | 48.4 | 1026.4 | 9.4 | SE | 13.8 | ESE | 0.0 | 0.2 | |||||||||
| 00:20 | 24.0 | 49.5 | 1026.4 | 9.5 | SE | 14.5 | ESE | 0.0 | 0.1 | |||||||||
| 00:25 | 24.0 | 51.5 | 1026.4 | 7.3 | SE | 10.6 | SSE | 0.0 | 0.1 | |||||||||
| 00:30 | 24.0 | 54.3 | 1026.3 | 7.8 | SSE | 10.2 | SSE | 0.0 | 0.1 | |||||||||
| 00:35 | 24.0 | 57.3 | 1026.3 | 7.9 | SE | 12.0 | SSE | 0.0 | 0.1 | |||||||||
| 00:40 | 24.0 | 59.5 | 1026.3 | 8.2 | SSE | 10.9 | SSE | 0.0 | 0.1 | |||||||||
| 00:45 | 23.9 | 61.5 | 1026.2 | 7.6 | SE | 10.2 | SE | 0.0 | 0.1 | |||||||||
| 00:50 | 23.9 | 62.6 | 1026.2 | 7.4 | SSE | 11.3 | SSE | 0.0 | 0.1 | |||||||||
| 00:55 | 23.9 | 63.5 | 1026.1 | 6.8 | SSE | 9.2 | SSE | 0.0 | 0.1 | |||||||||
| 01:00 | 23.9 | 63.9 | 1026.1 | 6.6 | SSE | 9.2 | SSE | 0.0 | 0.1 | |||||||||
| 01:05 | 23.9 | 64.4 | 1026.0 | 6.0 | SSE | 8.1 | SSE | 0.0 | 0.1 | |||||||||
| 01:10 | 23.9 | 64.9 | 1025.9 | 5.5 | SSE | 7.1 | SSE | 0.0 | 0.1 | |||||||||
| 01:15 | 23.8 | 65.1 | 1025.9 | 5.9 | SSE | 7.1 | SSE | 0.0 | 0.1 | |||||||||
| 01:20 | 23.8 | 65.3 | 1025.9 | 5.4 | S | 6.7 | S | 0.0 | 0.1 | |||||||||
| 01:25 | 23.9 | 65.5 | 1025.8 | 5.4 | SSW | 6.7 | S | 0.0 | 0.1 | |||||||||
| 01:30 | 23.9 | 65.2 | 1025.8 | 5.4 | SSW | 6.7 | S | 0.0 | 0.1 | |||||||||
| 01:35 | 24.0 | 64.9 | 1025.8 | 4.6 | S | 6.0 | S | 0.0 | 0.1 | |||||||||
| 01:40 | 24.0 | 65.0 | 1025.8 | 4.7 | SSW | 6.0 | SW | 0.0 | 0.1 | |||||||||
| 01:45 | 24.0 | 65.0 | 1025.8 | 4.2 | SSW | 5.6 | S | 0.0 | 0.1 | |||||||||
| 01:50 | 24.0 | 65.3 | 1025.8 | 3.5 | SSW | 4.6 | S | 0.0 | 0.1 | |||||||||
| 01:55 | 23.8 | 65.8 | 1025.7 | 3.1 | SSW | 3.9 | S | 0.0 | 0.1 | |||||||||
| 02:00 | 23.7 | 66.4 | 1025.7 | 3.1 | SSW | 4.2 | SSW | 0.0 | 0.1 | |||||||||
| 02:05 | 23.7 | 66.5 | 1025.7 | 3.3 | SW | 4.2 | SSW | 0.0 | 0.1 | |||||||||
| 02:10 | 23.7 | 66.5 | 1025.6 | 3.0 | WSW | 5.6 | WSW | 0.0 | 0.1 | |||||||||
| 02:15 | 23.7 | 66.9 | 1025.6 | 1.3 | W | 3.5 | W | 0.0 | 0.1 | |||||||||
| 02:20 | 23.6 | 68.0 | 1025.6 | 1.3 | W | 3.9 | W | 0.0 | 0.1 | |||||||||
| 02:25 | 23.4 | 68.9 | 1025.6 | 2.2 | WSW | 3.5 | WSW | 0.0 | 0.1 | |||||||||
| 02:30 | 23.5 | 68.7 | 1025.6 | 2.9 | WSW | 4.2 | WSW | 0.0 | 0.1 | |||||||||
| 02:35 | 23.6 | 68.5 | 1025.6 | 2.7 | WSW | 3.9 | WSW | 0.0 | 0.1 | |||||||||
| 02:40 | 23.6 | 68.7 | 1025.6 | 1.6 | SW | 2.5 | SW | 0.0 | 0.1 | |||||||||
| 02:45 | 23.5 | 68.6 | 1025.5 | 2.3 | WNW | 4.9 | NW | 0.0 | 0.1 | |||||||||
| 02:50 | 23.5 | 69.0 | 1025.5 | 4.0 | NW | 6.0 | WNW | 0.0 | 0.1 | |||||||||
| 02:55 | 23.5 | 69.3 | 1025.5 | 5.6 | NW | 8.5 | NW | 0.0 | 0.1 | |||||||||
| 03:00 | 23.5 | 69.3 | 1025.5 | 7.6 | NW | 8.8 | NW | 0.0 | 0.1 | |||||||||
| 03:05 | 23.5 | 68.8 | 1025.4 | 6.9 | NW | 10.6 | NW | 0.0 | 0.1 | |||||||||
| 03:10 | 23.7 | 67.9 | 1025.4 | 6.4 | NW | 9.2 | NW | 0.0 | 0.1 | |||||||||
| 03:15 | 23.8 | 67.2 | 1025.4 | 6.3 | NW | 11.3 | WNW | 0.0 | 0.1 | |||||||||
| 03:20 | 24.0 | 66.0 | 1025.3 | 6.8 | NW | 10.9 | WNW | 0.0 | 0.1 | |||||||||
| 03:25 | 24.0 | 65.7 | 1025.3 | 5.3 | NW | 9.2 | WNW | 0.0 | 0.1 | |||||||||
| 03:30 | 23.9 | 65.8 | 1025.3 | 5.5 | NW | 8.8 | NW | 0.0 | 0.1 | |||||||||
| 03:35 | 23.7 | 66.4 | 1025.3 | 5.7 | NW | 8.8 | NW | 0.0 | 0.1 | |||||||||
| 03:40 | 23.6 | 66.9 | 1025.2 | 5.6 | NW | 8.5 | NW | 0.0 | 0.1 | |||||||||
| 03:45 | 23.4 | 67.4 | 1025.2 | 6.1 | NW | 8.5 | NNW | 0.0 | 0.1 | |||||||||
| 03:50 | 23.3 | 67.3 | 1025.2 | 6.0 | NW | 8.5 | NW | 0.0 | 0.1 | |||||||||
| 03:55 | 23.3 | 66.8 | 1025.2 | 5.3 | NW | 9.5 | NW | 0.0 | 0.1 | |||||||||
| 04:00 | 23.4 | 66.5 | 1025.2 | 3.7 | NW | 9.2 | NW | 0.0 | 0.1 | |||||||||
| 04:05 | 23.2 | 66.7 | 1025.1 | 4.5 | NNW | 9.2 | NW | 0.0 | 0.1 | |||||||||
| 04:10 | 23.1 | 65.9 | 1025.1 | 6.4 | NW | 13.1 | WNW | 0.0 | 0.1 | |||||||||
| 04:15 | 23.4 | 64.3 | 1025.1 | 6.4 | NW | 11.3 | NW | 0.0 | 0.1 | |||||||||
| 04:20 | 23.5 | 64.5 | 1025.1 | 4.1 | NW | 11.6 | NNW | 0.0 | 0.1 | |||||||||
| 04:25 | 23.4 | 65.2 | 1025.0 | 2.7 | NW | 7.4 | NW | 0.0 | 0.1 | |||||||||
| Máxima | 24.0 | 69.3 | 1026.5 | 9.9 | SE | 15.9 | ESE | 0.0 | 0.2 | |||||||||
| Mínima | 20 | 48.2 | 1025.0 | |||||||||||||||
| Total | 0.0 | |||||||||||||||||